User: anonymous   Login
Location: Bois de la Silve
(44.4667°N, 6.7833°E)
Time: 01:41:51
(UTC+00:00)
Language:

SL-8 R/B - Orbit

View from above orbital plane
View from above orbital plane
View from above satellite
View from above satellite

Ground track
Ground track

The orbit data is extracted from the following two-line orbital elements,

1 33066U 08031G   21125.25524863 -.00000099  00000-0  16234-4 0  9995
2 33066  48.4441 316.2575 0007656 347.9637  12.1090 14.69753861691286
Epoch (UTC): 05 May 2021 06:07:33
Eccentricity: 0.0007656
inclination: 48.4441°
perigee height: 656 km
apogee height: 667 km
right ascension of ascending node: 316.2575°
argument of perigee: 347.9637°
revolutions per day: 14.69753861
mean anomaly at epoch: 12.1090°
orbit number at epoch: 69128

The dashed part of the orbit path shows where the satellite is in the earth's shadow,  

DLR